This is the latest recevied weather packets stored in our database for station/object K3HW. If no packets are shown the sender has not sent any weather packets the latest 10 day(s).
| Time | Temp. | Humidity | Pressure | Rain* | Wind** | Luminosity | Snow |
|---|---|---|---|---|---|---|---|
| 1778025412 | 25° C | 42% | 1012.4 hPa | 0 mm | - | 1 W/m² | - |
| 1778020565 | 26.67° C | 38% | 1012.4 hPa | 0 mm | - | 23 W/m² | - |
| 1778019351 | 27.22° C | 36% | 1012.2 hPa | 0 mm | - | 98 W/m² | - |
| 1778019047 | 27.22° C | 36% | 1012.2 hPa | 0 mm | - | 64 W/m² | - |
| 1778017838 | 27.78° C | 35% | 1011.9 hPa | 0 mm | - | 84 W/m² | - |
| 1778017536 | 27.78° C | 36% | 1012.1 hPa | 0 mm | - | 222 W/m² | - |
| 1778015414 | 27.78° C | 34% | 1011.8 hPa | 0 mm | - | 203 W/m² | - |
| 1778014506 | 27.22° C | 33% | 1012.1 hPa | 0 mm | - | 72 W/m² | - |
| 1778013293 | 27.78° C | 35% | 1012.2 hPa | 0 mm | - | 146 W/m² | - |
| 1778012990 | 27.78° C | 35% | 1012 hPa | 0 mm | - | 74 W/m² | - |
| 1778012382 | 27.22° C | 33% | 1012.1 hPa | 0 mm | - | 71 W/m² | - |
| 1778012080 | 27.22° C | 34% | 1012.2 hPa | 0 mm | - | 112 W/m² | - |
| 1778011777 | 27.22° C | 35% | 1012.4 hPa | 0 mm | - | 113 W/m² | - |
| 1778010868 | 27.22° C | 35% | 1012.4 hPa | 0 mm | - | 57 W/m² | - |
| 1778009962 | 27.78° C | 33% | 1012.4 hPa | 0 mm | - | 321 W/m² | - |
| 1778009660 | 27.78° C | 33% | 1012.5 hPa | 0 mm | - | 103 W/m² | - |
| 1778009358 | 27.78° C | 34% | 1012.4 hPa | 0 mm | - | 201 W/m² | - |
| 1778009056 | 27.22° C | 32% | 1012.6 hPa | 0 mm | - | 60 W/m² | - |
| 1778008753 | 27.78° C | 31% | 1012.6 hPa | 0 mm | - | 143 W/m² | - |
| 1778008452 | 27.78° C | 32% | 1012.8 hPa | 0 mm | - | 185 W/m² | - |
| 1778008148 | 27.78° C | 35% | 1012.6 hPa | 0 mm | - | 78 W/m² | - |
| 1778007539 | 27.78° C | 38% | 1012.8 hPa | 0 mm | - | 135 W/m² | - |
| 1778007236 | 27.22° C | 32% | 1013 hPa | 0 mm | - | 106 W/m² | - |
| 1778006326 | 27.22° C | 34% | 1013.1 hPa | 0 mm | - | 239 W/m² | - |
| 1778006023 | 27.22° C | 38% | 1013.2 hPa | 0 mm | - | 315 W/m² | - |
* Rain latest hour (hover to see other rain measurements)
** Current wind speed in m/s (hover to see current wind gust speed)